Location: Cutler
(25.6150°N, 80.3110°W)
Time: 22:49:59
(UTC-05:00)

Vanguard 1 - Pass Details

Date: 24 January 2018
Orbit: 650 x 3833 km, 34.2° (Epoch: 24 February)

Event Time Altitude Azimuth Distance (km) Brightness Sun altitude
Rises 08:25:57 0° 272° (W) 6,978 13.9 15.1°
Reaches altitude 10° 08:33:03 10° 255° (WSW) 6,431 13.9 16.5°
Maximum altitude 08:44:56 17° 222° (SW) 6,225 14.1 18.7°
Drops below altitude 10° 08:57:47 10° 187° (S) 6,852 14.8 21.1°
Sets 09:06:15 0° 170° (S) 7,578 15.3 22.7°
